Beckley, WV

10:44 PM EDT on October 22, 2019 (GMT -0400)
Raleigh County Memorial

Weather History for KBKW - September, 2019

Change the Weather History Date:

Wednesday, September 18, 2019

  Actual Average Record
Temperature  
Mean Temperature 68 °F 62 °F  
Max Temperature 75 °F 72 °F 90 °F (1931)
Min Temperature 61 °F 53 °F 29 °F (1937)
Degree Days  
Heating Degree Days 0 4  
Month to date heating degree days 0 41  
Since 1 July heating degree days 9 62  
Cooling Degree Days 3 1  
Month to date cooling degree days 140 47  
Year to date cooling degree days 834 540  
Growing Degree Days 18 (Base 50)    
Moisture  
Dew Point 58 °F    
Average Humidity 70    
Maximum Humidity 84    
Minimum Humidity 55    
Precipitation  
Precipitation 0.00 in 0.11 in 1.90 in (2012)
Month to date precipitation 0.03 1.86  
Year to date precipitation 31.75 31.52  
Sea Level Pressure  
Sea Level Pressure 30.13 in    
Wind  
Wind Speed 8 mph ()    
Max Wind Speed 16 mph    
Max Gust Speed 23 mph    
Visibility 10.0 miles    
Events      
T = Trace of Precipitation, MM = Missing Value Source: Averaged Metar Reports

Daily Weather History Graph

Daily Weather History Graph

Search for Another Location

Airport or City:

Astronomy

Sep. 18, 2019 Rise Set
Actual Time 7:08 AM EDT 7:28 PM EDT
Civil Twilight 6:42 AM EDT 7:54 PM EDT
Nautical Twilight 6:11 AM EDT 8:24 PM EDT
Astronomical Twilight 5:40 AM EDT 8:56 PM EDT
Moon 10:05 PM EDT (9/18) 11:06 AM EDT (9/18)
Length of Visible Light 13h 11m
Length of Day
12h 19m
Waning Gibbous, 82% of the Moon is Illuminated
Sep 18
Waning Gibbous
Sep 21
Last Quarter
Sep 28
New
Oct 5
First Quarter
Oct 13
Full

Hourly Weather History & Observations

Time (EDT) Temp. Dew Point Humidity Pressure Visibility Wind Dir Wind Speed Gust Speed Precip Events Conditions
12:51 AM 66.9 °F 61.0 °F 81% 30.03 in 10.0 mi ESE 6.9 mph - N/A   Scattered Clouds
1:18 AM 66.9 °F 61.0 °F 81% 30.15 in 10.0 mi ESE 8.1 mph - N/A   Mostly Cloudy
1:51 AM 66.9 °F 61.0 °F 81% 30.05 in 10.0 mi ESE 10.4 mph - N/A   Overcast
2:47 AM 66.2 °F 60.8 °F 83% 30.15 in 10.0 mi ESE 9.2 mph - N/A   Overcast
2:51 AM 66.9 °F 60.1 °F 79% 30.04 in 10.0 mi SE 8.1 mph - N/A   Overcast
3:51 AM 66.0 °F 59.0 °F 78% 30.05 in 10.0 mi ESE 5.8 mph - N/A   Overcast
4:02 AM 66.0 °F 59.0 °F 78% 30.16 in 10.0 mi ESE 10.4 mph - N/A   Overcast
4:51 AM 64.9 °F 59.0 °F 81% 30.04 in 10.0 mi ESE 4.6 mph - N/A   Scattered Clouds
5:51 AM 64.0 °F 59.0 °F 84% 30.05 in 10.0 mi ESE 5.8 mph - N/A   Partly Cloudy
6:13 AM 64.0 °F 59.0 °F 84% 30.16 in 10.0 mi East 4.6 mph - N/A   Mostly Cloudy
11:51 AM 70.0 °F 57.9 °F 65% 30.11 in 10.0 mi ESE 15.0 mph 23.0 mph N/A   Overcast
12:51 PM 70.0 °F 57.9 °F 65% 30.13 in 10.0 mi SE 12.7 mph - N/A   Overcast
1:43 PM 71.1 °F 57.9 °F 63% 30.20 in 10.0 mi SE 9.2 mph - N/A   Mostly Cloudy
1:51 PM 71.1 °F 57.9 °F 63% 30.12 in 10.0 mi SSE 10.4 mph 18.4 mph N/A   Mostly Cloudy
2:28 PM 71.1 °F 57.9 °F 63% 30.20 in 10.0 mi SE 10.4 mph 18.4 mph N/A   Overcast
2:35 PM 72.0 °F 57.9 °F 61% 30.20 in 10.0 mi SSE 10.4 mph - N/A   Overcast
2:42 PM 72.0 °F 57.9 °F 61% 30.20 in 10.0 mi South 12.7 mph - N/A   Mostly Cloudy
2:51 PM 73.0 °F 57.9 °F 59% 30.11 in 10.0 mi South 10.4 mph 17.3 mph N/A   Mostly Cloudy
3:12 PM 72.0 °F 57.9 °F 61% 30.20 in 10.0 mi SSE 10.4 mph - N/A   Mostly Cloudy
3:47 PM 73.4 °F 57.2 °F 57% 30.20 in 10.0 mi SSE 8.1 mph - N/A   Scattered Clouds
3:51 PM 73.0 °F 57.9 °F 59% 30.11 in 10.0 mi South 11.5 mph - N/A   Mostly Cloudy
4:06 PM 73.0 °F 57.9 °F 59% 30.19 in 10.0 mi South 10.4 mph - N/A   Partly Cloudy
4:51 PM 73.9 °F 57.0 °F 55% 30.09 in 10.0 mi SE 9.2 mph - N/A   Clear
5:51 PM 73.0 °F 57.0 °F 57% 30.09 in 10.0 mi SSE 10.4 mph - N/A   Clear
6:51 PM 70.0 °F 55.9 °F 61% 30.10 in 10.0 mi South 8.1 mph - N/A   Clear
7:51 PM 66.0 °F 55.9 °F 70% 30.12 in 10.0 mi SSE 8.1 mph - N/A   Clear
8:51 PM 64.0 °F 55.9 °F 75% 30.13 in 10.0 mi SSE 8.1 mph - N/A   Clear
9:51 PM 63.0 °F 55.0 °F 75% 30.14 in 10.0 mi SSE 6.9 mph - N/A   Clear
10:51 PM 63.0 °F 55.0 °F 75% 30.15 in 10.0 mi SE 10.4 mph - N/A   Clear
11:51 PM 62.1 °F 55.0 °F 78% 30.16 in 10.0 mi SE 10.4 mph - N/A   Clear